TimeHST,TemperatureF,Dew PointF,Humidity,Sea Level PressureIn,VisibilityMPH,Wind Direction,Wind SpeedMPH,Gust SpeedMPH,PrecipitationIn,Events,Conditions,WindDirDegrees,DateUTC
12:54 AM,73.9,63.0,68,30.02,10.0,NE,9.2,-,N/A,,Clear,40,2012-10-29 10:54:00
1:54 AM,73.9,62.1,66,30.01,10.0,NE,10.4,18.4,N/A,,Clear,50,2012-10-29 11:54:00
2:54 AM,73.9,59.0,59,30.00,10.0,NE,9.2,19.6,N/A,,Clear,40,2012-10-29 12:54:00
3:54 AM,73.9,60.1,62,30.01,10.0,NNE,8.1,18.4,N/A,,Clear,30,2012-10-29 13:54:00
4:54 AM,73.9,59.0,59,30.02,10.0,NE,8.1,20.7,N/A,,Clear,40,2012-10-29 14:54:00
5:54 AM,73.9,63.0,68,30.04,10.0,NE,13.8,18.4,N/A,,Partly Cloudy,40,2012-10-29 15:54:00
6:54 AM,73.9,63.0,68,30.07,10.0,NE,11.5,20.7,N/A,,Partly Cloudy,50,2012-10-29 16:54:00
7:54 AM,75.9,62.1,62,30.08,10.0,NNE,10.4,17.3,N/A,,Clear,30,2012-10-29 17:54:00
8:54 AM,78.1,63.0,60,30.09,10.0,NNE,12.7,21.9,N/A,,Partly Cloudy,30,2012-10-29 18:54:00
9:54 AM,79.0,64.0,60,30.09,10.0,NNE,13.8,24.2,N/A,,Scattered Clouds,30,2012-10-29 19:54:00
10:54 AM,81.0,64.0,56,30.07,10.0,NE,17.3,28.8,N/A,,Scattered Clouds,50,2012-10-29 20:54:00
11:54 AM,82.0,64.0,54,30.05,10.0,NE,15.0,29.9,N/A,,Partly Cloudy,40,2012-10-29 21:54:00
12:54 PM,82.0,64.0,54,30.02,10.0,NNE,16.1,27.6,N/A,,Scattered Clouds,30,2012-10-29 22:54:00
1:54 PM,81.0,63.0,54,30.00,10.0,NE,20.7,28.8,N/A,,Scattered Clouds,40,2012-10-29 23:54:00
2:54 PM,79.0,64.0,60,29.98,10.0,NNE,20.7,31.1,N/A,,Scattered Clouds,30,2012-10-30 00:54:00
3:54 PM,79.0,64.0,60,29.98,10.0,NE,17.3,32.2,N/A,,Scattered Clouds,40,2012-10-30 01:54:00
4:54 PM,77.0,66.0,69,30.01,10.0,NE,16.1,25.3,N/A,,Scattered Clouds,40,2012-10-30 02:54:00
5:54 PM,75.0,66.0,73,30.02,10.0,NE,16.1,24.2,0.00,,Scattered Clouds,50,2012-10-30 03:54:00
6:54 PM,73.9,64.9,73,30.05,10.0,NE,15.0,26.5,0.00,,Scattered Clouds,40,2012-10-30 04:54:00
7:43 PM,73.4,66.2,78,30.05,10.0,NE,9.2,20.7,N/A,,Mostly Cloudy,50,2012-10-30 05:43:00
7:54 PM,73.9,66.0,76,30.06,10.0,NE,16.1,23.0,N/A,,Mostly Cloudy,50,2012-10-30 05:54:00
8:04 PM,73.4,66.2,78,30.05,10.0,NNE,11.5,23.0,N/A,,Scattered Clouds,30,2012-10-30 06:04:00
8:54 PM,73.0,66.9,81,30.08,10.0,NNE,11.5,19.6,0.00,,Mostly Cloudy,30,2012-10-30 06:54:00
9:54 PM,73.9,64.9,73,30.08,10.0,NE,17.3,24.2,0.00,,Partly Cloudy,40,2012-10-30 07:54:00
10:54 PM,73.9,66.0,76,30.08,10.0,NE,9.2,19.6,0.00,,Clear,40,2012-10-30 08:54:00
11:54 PM,73.9,64.9,73,30.08,10.0,NE,11.5,18.4,N/A,,Clear,50,2012-10-30 09:54:00